TimeMST,TemperatureF,Dew PointF,Humidity,Sea Level PressureIn,VisibilityMPH,Wind Direction,Wind SpeedMPH,Gust SpeedMPH,PrecipitationIn,Events,Conditions,WindDirDegrees,DateUTC
12:54 AM,25.0,17.1,72,29.93,10.0,SSW,6.9,-,N/A,,Mostly Cloudy,200,2012-12-07 07:54:00
1:54 AM,21.9,17.1,82,29.93,10.0,South,9.2,-,N/A,,Scattered Clouds,180,2012-12-07 08:54:00
2:54 AM,24.1,18.0,77,29.93,10.0,South,9.2,-,N/A,,Clear,180,2012-12-07 09:54:00
3:54 AM,19.9,15.1,81,29.91,10.0,ESE,5.8,-,N/A,,Clear,120,2012-12-07 10:54:00
4:54 AM,19.9,15.1,81,29.91,10.0,ESE,4.6,-,N/A,,Mostly Cloudy,120,2012-12-07 11:54:00
5:44 AM,28.4,21.2,74,29.80,8.0,WSW,8.1,-,0.00,Snow,Light Snow,250,2012-12-07 12:44:00
5:54 AM,28.0,23.0,81,29.91,4.0,WSW,8.1,-,0.00,Snow,Light Snow,240,2012-12-07 12:54:00
6:22 AM,26.6,24.8,93,29.80,2.0,WNW,3.5,-,0.00,Snow,Light Snow,300,2012-12-07 13:22:00
6:30 AM,26.6,24.8,93,29.81,1.5,West,11.5,-,0.00,Snow,Light Snow,260,2012-12-07 13:30:00
6:37 AM,26.6,24.8,93,29.81,0.8,West,9.2,-,0.00,Snow,Light Snow,270,2012-12-07 13:37:00
6:54 AM,27.0,25.0,92,29.91,1.5,Calm,Calm,-,0.00,Snow,Light Snow,0,2012-12-07 13:54:00
6:59 AM,26.6,24.8,93,29.80,2.0,SSW,3.5,-,0.00,Snow,Light Snow,210,2012-12-07 13:59:00
7:09 AM,26.6,24.8,93,29.81,8.0,Calm,Calm,-,0.00,Snow,Light Snow,0,2012-12-07 14:09:00
7:21 AM,26.6,24.8,93,29.81,10.0,Calm,Calm,-,0.00,,Overcast,0,2012-12-07 14:21:00
7:31 AM,26.6,24.8,93,29.81,2.5,SW,3.5,-,0.00,Snow,Light Snow,230,2012-12-07 14:31:00
7:39 AM,26.6,24.8,93,29.81,1.0,Calm,Calm,-,0.00,Snow,Light Snow,0,2012-12-07 14:39:00
7:42 AM,26.6,24.8,93,29.81,0.8,WSW,3.5,-,0.00,Snow,Light Snow,250,2012-12-07 14:42:00
7:54 AM,27.0,25.0,92,29.92,1.0,SW,4.6,-,0.00,Snow,Light Snow,230,2012-12-07 14:54:00
7:58 AM,26.6,24.8,93,29.82,2.0,SSW,4.6,-,0.00,Snow,Light Snow,210,2012-12-07 14:58:00
8:04 AM,26.6,24.8,93,29.81,8.0,South,5.8,-,0.00,Snow,Light Snow,190,2012-12-07 15:04:00
8:54 AM,21.9,19.9,92,29.94,10.0,SW,9.2,-,0.00,,Mostly Cloudy,230,2012-12-07 15:54:00
9:54 AM,28.0,23.0,81,29.94,10.0,SW,8.1,-,N/A,,Mostly Cloudy,230,2012-12-07 16:54:00
10:54 AM,30.0,21.9,72,29.93,10.0,West,8.1,-,N/A,,Overcast,270,2012-12-07 17:54:00
11:54 AM,30.9,19.0,61,29.90,10.0,NW,5.8,-,N/A,,Mostly Cloudy,310,2012-12-07 18:54:00
12:54 PM,30.9,15.1,52,29.89,10.0,WNW,15.0,-,N/A,,Clear,300,2012-12-07 19:54:00
1:54 PM,34.0,15.1,46,29.87,10.0,NW,16.1,24.2,N/A,,Mostly Cloudy,310,2012-12-07 20:54:00
2:54 PM,32.0,15.1,50,29.86,10.0,NW,10.4,-,N/A,,Scattered Clouds,310,2012-12-07 21:54:00
3:54 PM,28.9,14.0,54,29.86,10.0,WSW,8.1,-,N/A,,Partly Cloudy,250,2012-12-07 22:54:00
4:54 PM,28.0,15.1,58,29.85,10.0,SW,11.5,-,N/A,,Scattered Clouds,230,2012-12-07 23:54:00
5:54 PM,28.9,18.0,64,29.79,10.0,WSW,8.1,-,N/A,,Overcast,250,2012-12-08 00:54:00
6:54 PM,30.0,18.0,61,29.75,10.0,SSW,6.9,-,N/A,,Overcast,210,2012-12-08 01:54:00
7:54 PM,32.0,18.0,56,29.72,10.0,SW,6.9,-,0.00,,Overcast,220,2012-12-08 02:54:00
8:54 PM,32.0,18.0,56,29.70,10.0,SW,15.0,-,N/A,,Mostly Cloudy,230,2012-12-08 03:54:00
9:54 PM,32.0,19.9,61,29.66,10.0,WSW,15.0,-,N/A,,Overcast,240,2012-12-08 04:54:00
10:54 PM,30.0,21.0,69,29.62,10.0,SW,10.4,-,N/A,,Mostly Cloudy,220,2012-12-08 05:54:00
11:54 PM,30.9,19.9,64,29.61,10.0,WSW,11.5,-,N/A,,Partly Cloudy,250,2012-12-08 06:54:00